Amateur Radio Satellites - All Passes

Search period start: 19 May 2013 20:44
Search period end: 20 May 2013 20:44
Location: Sommers-Bausch Observatory, 40.0037°N, 105.2635°W

Satellite Date Start Highest point End Downlink Frequencies (MHz)
Time Altitude Azimuth
OPAL 19 May 21:02:20 21:05:08 15° 59° (ENE) 21:07:55 ?
JAS-1B 19 May 21:10:58 21:19:28 37° 263° (W) 21:27:04 435.800 - 435.900 CW/SSB
Oscar 11 19 May 21:21:40 21:25:22 29° 69° (ENE) 21:29:06 145.825 FM, Beacon 2401.500 USB
UOSAT-12 19 May 21:47:15 21:51:50 73° 240° (WSW) 21:56:25 437.025 FM, 437.400 FM
HO-68 19 May 21:48:45 21:55:53 78° 255° (WSW) 22:03:04 435.675 MHz FM
RS-15 19 May 21:49:40 21:57:20 19° 353° (N) 22:04:49 29.354 - 29.394 USB, Beacon 29.352 USB
JAS-2 19 May 22:13:32 22:21:08 78° 257° (WSW) 22:29:04 435.800 - 435.900 CW/SSB, 435.910 FM
OPAL 19 May 22:38:11 22:43:24 75° 255° (WSW) 22:48:36 ?
Oscar 11 19 May 22:58:06 23:01:34 24° 265° (W) 23:05:04 145.825 FM, Beacon 2401.500 USB
KITSAT 1 19 May 23:04:35 23:11:48 38° 108° (ESE) 23:19:04 435.175 FM
AO-40 19 May 23:10:18 05:00:59 43° 171° (S) 09:11:07 Beacon 2401.320
HO-68 19 May 23:42:09 23:44:37 12° 272° (W) 23:47:05 435.675 MHz FM
JAS-2 20 May 00:03:31 00:07:14 14° 275° (W) 00:11:02 435.800 - 435.900 CW/SSB, 435.910 FM
RS-15 20 May 00:05:55 00:15:12 28° 29° (NNE) 00:24:11 29.354 - 29.394 USB, Beacon 29.352 USB
KITSAT 1 20 May 00:59:13 01:06:59 50° 308° (NW) 01:14:50 435.175 FM
Uribyol 2 20 May 01:50:19 01:53:23 16° 91° (E) 01:56:25 436.500 FM
Oscar 19 20 May 01:59:09 02:03:06 22° 94° (E) 02:07:01 437.125 CW, 437.150 USB
MaSat-1 20 May 02:01:24 02:08:04 40° 108° (ESE) 02:13:49 437.345 MHz
RS-15 20 May 02:18:26 02:29:37 80° 57° (ENE) 02:40:30 29.354 - 29.394 USB, Beacon 29.352 USB
Oscar 16 20 May 02:37:04 02:42:13 60° 101° (E) 02:47:17 437.025 USB, Beacon 2401.1428
AO-27 20 May 02:38:56 02:43:56 45° 99° (E) 02:48:55 436.795 MHz FM
ITAMSAT 1 20 May 02:46:18 02:51:24 52° 100° (E) 02:56:29 435.822 SSB
KITSAT 1 20 May 03:00:13 03:04:38 15° 333° (NNW) 03:09:03 435.175 FM
Uribyol 2 20 May 03:28:06 03:33:16 62° 287° (WNW) 03:38:25 436.500 FM
Oscar 19 20 May 03:37:45 03:42:38 43° 290° (WNW) 03:47:28 437.125 CW, 437.150 USB
ISS 20 May 03:40:50 03:43:57 40° 137° (SE) 03:47:06 145.800 FM
MaSat-1 20 May 03:43:42 03:50:17 40° 301° (WNW) 03:55:50 437.345 MHz
Uosat F 20 May 03:55:13 03:59:46 34° 97° (E) 04:04:18 435.120 FM
AO-Echo 20 May 04:04:49 04:09:34 79° 284° (WNW) 04:14:22 ?
TMSAT-1 20 May 04:06:23 04:10:39 24° 94° (E) 04:14:54 436.925 FM
Oscar 16 20 May 04:17:47 04:21:04 17° 298° (WNW) 04:24:20 437.025 USB, Beacon 2401.1428
AO-27 20 May 04:19:10 04:23:09 23° 295° (WNW) 04:27:08 436.795 MHz FM
AO-7 20 May 04:21:13 04:25:11 14° 89° (E) 04:29:08 29.400 - 29.500 MHz
Gurwin Techsat 1B 20 May 04:25:42 04:30:56 55° 100° (E) 04:36:08 435.225 FM
ITAMSAT 1 20 May 04:26:48 04:30:30 20° 296° (WNW) 04:34:13 435.822 SSB
RS-15 20 May 04:32:23 04:40:37 25° 258° (WSW) 04:48:48 29.354 - 29.394 USB, Beacon 29.352 USB
ISS 20 May 05:17:51 05:20:45 27° 334° (NNW) 05:23:40 145.800 FM
Uosat F 20 May 05:34:14 05:38:26 27° 293° (WNW) 05:42:38 435.120 FM
TMSAT-1 20 May 05:45:46 05:50:43 41° 290° (WNW) 05:55:38 436.925 FM
STRAND 1 20 May 05:47:12 05:51:37 31° 67° (ENE) 05:56:03 ?
Gurwin Techsat 1B 20 May 06:06:48 06:10:28 19° 297° (WNW) 06:14:07 435.225 FM
Saudisat 1A 20 May 06:07:09 06:11:13 33° 114° (ESE) 06:15:21 436.775 MHz
AO-7 20 May 06:10:45 06:19:10 79° 106° (ESE) 06:27:32 29.400 - 29.500 MHz
ISS 20 May 06:56:59 06:58:21 12° 354° (N) 06:59:44 145.800 FM
KITSAT 1 20 May 06:58:09 07:03:58 21° 35° (NE) 07:09:45 435.175 FM
PCSat 20 May 07:03:14 07:06:26 16° 104° (ESE) 07:09:38 145.825 MHz
Hamsat 20 May 07:19:26 07:22:56 23° 95° (E) 07:26:26 145.90 MHz
STRAND 1 20 May 07:26:18 07:30:45 30° 264° (W) 07:35:14 ?
Sapphire 20 May 07:34:22 07:38:59 30° 109° (ESE) 07:43:37 437.095 MHz 1200 baud AX-25 AFSK
Saudisat 1A 20 May 07:46:56 07:50:56 29° 312° (NW) 07:54:58 436.775 MHz
AO-7 20 May 08:04:47 08:11:05 25° 305° (NW) 08:17:25 29.400 - 29.500 MHz
SO-67 20 May 08:09:55 08:12:56 25° 96° (E) 08:15:57 435.3500 MHz FM
ISS 20 May 08:34:13 08:36:12 15° 14° (NNE) 08:38:11 145.800 FM
SO-50 20 May 08:41:35 08:45:09 21° 111° (ESE) 08:48:42 436.795 FM
PCSat 20 May 08:43:53 08:49:15 67° 301° (WNW) 08:54:40 145.825 MHz
KITSAT 1 20 May 08:52:42 09:00:51 74° 58° (ENE) 09:08:58 435.175 FM
Oscar 10/S400 20 May 08:53:28 11:18:05 30° 269° (W) 18:25:36 145.825 - 145.975 CW/USB, Beacon 145.810 USB
Hamsat 20 May 08:55:13 08:58:59 30° 290° (WNW) 09:02:47 145.90 MHz
JAS-1B 20 May 08:57:49 09:04:01 81° 104° (ESE) 09:09:41 435.800 - 435.900 CW/SSB
Sapphire 20 May 09:17:15 09:22:15 38° 306° (NW) 09:27:19 437.095 MHz 1200 baud AX-25 AFSK
HO-68 20 May 09:18:30 09:23:35 20° 92° (E) 09:28:37 435.675 MHz FM
JAS-2 20 May 09:27:16 09:31:23 17° 86° (E) 09:35:14 435.800 - 435.900 CW/SSB, 435.910 FM
SO-67 20 May 09:43:44 09:46:14 18° 291° (WNW) 09:48:43 435.3500 MHz FM
ISS 20 May 10:10:14 10:13:32 50° 33° (NNE) 10:16:49 145.800 FM
SO-50 20 May 10:20:52 10:25:29 46° 307° (NW) 10:30:03 436.795 FM
PCSat 20 May 10:31:37 10:33:45 12° 321° (NW) 10:35:54 145.825 MHz
Oscar 11 20 May 10:45:41 10:50:02 64° 101° (E) 10:54:22 145.825 FM, Beacon 2401.500 USB
KITSAT 1 20 May 10:49:25 10:55:26 24° 256° (WSW) 11:01:28 435.175 FM
OPAL 20 May 10:49:28 10:53:49 29° 98° (E) 10:58:07 ?
JAS-1B 20 May 10:50:37 10:53:42 14° 305° (NW) 10:56:39 435.800 - 435.900 CW/SSB
HO-68 20 May 11:04:43 11:11:51 72° 289° (WNW) 11:18:57 435.675 MHz FM
JAS-2 20 May 11:10:17 11:17:22 78° 286° (WNW) 11:23:34 435.800 - 435.900 CW/SSB, 435.910 FM
ISS 20 May 11:47:38 11:49:59 18° 229° (SW) 11:52:19 145.800 FM
UOSAT-12 20 May 11:58:17 12:02:28 39° 115° (ESE) 12:06:41 437.025 FM, 437.400 FM
Oscar 16 20 May 12:19:17 12:20:04 10° 58° (ENE) 12:20:51 437.025 USB, Beacon 2401.1428
Oscar 11 20 May 12:24:00 12:25:43 12° 297° (WNW) 12:27:25 145.825 FM, Beacon 2401.500 USB
OPAL 20 May 12:28:17 12:32:41 31° 295° (WNW) 12:37:01 ?
MaSat-1 20 May 12:30:06 12:33:28 72° 246° (WSW) 12:36:11 437.345 MHz
HO-68 20 May 12:55:00 12:58:18 14° 308° (NW) 13:01:36 435.675 MHz FM
JAS-2 20 May 12:57:39 13:01:02 14° 307° (NW) 13:04:16 435.800 - 435.900 CW/SSB, 435.910 FM
Uribyol 2 20 May 13:07:30 13:11:29 23° 65° (ENE) 13:15:29 436.500 FM
Oscar 19 20 May 13:15:21 13:19:50 30° 67° (ENE) 13:24:20 437.125 CW, 437.150 USB
PANSAT 20 May 13:36:02 13:37:47 13° 171° (S) 13:39:32 not established
UOSAT-12 20 May 13:39:01 13:42:45 25° 313° (NW) 13:46:31 437.025 FM, 437.400 FM
AO-Echo 20 May 13:41:29 13:43:55 14° 63° (ENE) 13:46:20 ?
Oscar 16 20 May 13:53:22 13:58:34 81° 75° (ENE) 14:03:47 437.025 USB, Beacon 2401.1428
AO-27 20 May 13:56:31 14:01:37 64° 73° (ENE) 14:06:45 436.795 MHz FM
ITAMSAT 1 20 May 14:03:46 14:08:54 73° 74° (ENE) 14:14:05 435.822 SSB
Gurwin Techsat 1B 20 May 14:11:24 14:12:24 11° 58° (ENE) 14:13:24 435.225 FM
Saudisat 1A 20 May 14:35:08 14:38:55 25° 47° (NE) 14:42:39 436.775 MHz
Uribyol 2 20 May 14:45:46 14:50:40 43° 261° (W) 14:55:38 436.500 FM
Oscar 19 20 May 14:54:30 14:59:06 32° 264° (W) 15:03:45 437.125 CW, 437.150 USB
Uosat F 20 May 15:07:58 15:12:41 44° 70° (ENE) 15:17:25 435.120 FM
PANSAT 20 May 15:15:14 15:17:26 15° 184° (S) 15:19:38 not established
AO-Echo 20 May 15:17:19 15:22:12 66° 258° (WSW) 15:26:58 ?
AO-7 20 May 15:19:20 15:25:14 22° 53° (NE) 15:31:09 29.400 - 29.500 MHz
TMSAT-1 20 May 15:26:31 15:31:16 35° 69° (ENE) 15:36:03 436.925 FM
Oscar 16 20 May 15:36:58 15:38:31 11° 271° (W) 15:40:04 437.025 USB, Beacon 2401.1428
AO-27 20 May 15:38:45 15:41:34 15° 269° (W) 15:44:24 436.795 MHz FM
Gurwin Techsat 1B 20 May 15:46:11 15:51:29 80° 75° (ENE) 15:56:49 435.225 FM
ITAMSAT 1 20 May 15:46:45 15:48:56 13° 270° (W) 15:51:09 435.822 SSB
PCSat 20 May 15:50:41 15:53:44 15° 42° (NE) 15:56:46 145.825 MHz
Saudisat 1A 20 May 16:14:31 16:18:44 38° 245° (WSW) 16:22:51 436.775 MHz
Sapphire 20 May 16:22:43 16:27:04 24° 48° (NE) 16:31:23 437.095 MHz 1200 baud AX-25 AFSK
RS-15 20 May 16:39:23 16:51:03 58° 112° (ESE) 17:02:15 29.354 - 29.394 USB, Beacon 29.352 USB
Uosat F 20 May 16:48:00 16:51:40 20° 266° (W) 16:55:22 435.120 FM
TMSAT-1 20 May 17:06:44 17:11:13 28° 265° (W) 17:15:45 436.925 FM
AO-7 20 May 17:08:44 17:17:01 86° 252° (WSW) 17:25:24 29.400 - 29.500 MHz
SO-50 20 May 17:13:55 17:17:06 18° 43° (NE) 17:20:14 436.795 FM
Gurwin Techsat 1B 20 May 17:30:16 17:32:04 12° 271° (W) 17:33:52 435.225 FM
PCSat 20 May 17:32:32 17:38:00 85° 61° (ENE) 17:43:25 145.825 MHz
JAS-1B 20 May 17:53:53 17:58:28 16° 56° (NE) 18:02:45 435.800 - 435.900 CW/SSB
STRAND 1 20 May 18:01:57 18:02:10 10° 89° (E) 18:02:22 ?
Sapphire 20 May 18:05:32 18:10:49 54° 247° (WSW) 18:16:04 437.095 MHz 1200 baud AX-25 AFSK
Hamsat 20 May 18:14:00 18:16:37 16° 66° (ENE) 18:19:14 145.90 MHz
RS-15 20 May 18:52:24 19:03:48 47° 315° (NW) 19:14:46 29.354 - 29.394 USB, Beacon 29.352 USB
SO-50 20 May 18:53:38 18:58:06 59° 242° (WSW) 19:02:29 436.795 FM
AO-7 20 May 19:06:13 19:10:53 16° 270° (W) 19:15:35 29.400 - 29.500 MHz
PCSat 20 May 19:18:40 19:20:38 12° 258° (WSW) 19:22:36 145.825 MHz
STRAND 1 20 May 19:36:49 19:41:59 87° 285° (WNW) 19:47:08 ?
JAS-1B 20 May 19:38:34 19:47:55 70° 72° (ENE) 19:55:57 435.800 - 435.900 CW/SSB
Hamsat 20 May 19:48:22 19:52:20 42° 262° (W) 19:56:22 145.90 MHz
HO-68 20 May 19:48:24 19:52:24 16° 54° (NE) 19:56:24 435.675 MHz FM
SO-67 20 May 20:17:54 20:21:23 51° 261° (W) 20:24:54 435.3500 MHz FM
UOSAT-12 20 May 20:28:32 20:32:36 30° 49° (NE) 20:36:40 437.025 FM, 437.400 FM

Developed and maintained by Chris Peat, Heavens-Above GmbH. Please read the updated FAQ before sending e-mail. Imprint. DLR
